Time,TemperatureF,DewpointF,PressureIn,WindDirection,WindDirectionDegrees,WindSpeedMPH,WindSpeedGustMPH,Humidity,HourlyPrecipIn,Conditions,Clouds,dailyrainin,SoftwareType,DateUTC
2013-11-17 00:07:00,50.4,49.9,30.22,SE,135,0.0,-999.0,98,-99.99,,,0.00,Acu-Link.com,2013-11-17 05:07:00,
2013-11-17 00:22:00,50.5,50.0,30.22,West,270,1.7,-999.0,98,-99.99,,,0.00,Acu-Link.com,2013-11-17 05:22:00,
2013-11-17 00:37:00,50.0,49.5,30.22,SE,135,3.2,-999.0,98,-99.99,,,0.00,Acu-Link.com,2013-11-17 05:37:00,
2013-11-17 00:52:00,50.0,49.5,30.22,East,90,2.2,-999.0,98,-99.99,,,0.00,Acu-Link.com,2013-11-17 05:52:00,
2013-11-17 01:08:00,50.4,49.9,30.21,ENE,67,1.7,-999.0,98,-99.99,,,0.00,Acu-Link.com,2013-11-17 06:08:00,
2013-11-17 01:23:00,50.4,49.9,30.20,ESE,112,5.3,-999.0,98,-99.99,,,0.00,Acu-Link.com,2013-11-17 06:23:00,
2013-11-17 01:38:00,50.4,49.9,30.21,SSW,202,4.7,-999.0,98,-99.99,,,0.00,Acu-Link.com,2013-11-17 06:38:00,
2013-11-17 01:54:00,50.4,49.9,30.20,NNE,22,1.7,-999.0,98,-99.99,,,0.00,Acu-Link.com,2013-11-17 06:54:00,
2013-11-17 02:09:00,50.4,50.1,30.19,ENE,67,1.7,-999.0,99,-99.99,,,0.00,Acu-Link.com,2013-11-17 07:09:00,
2013-11-17 02:24:00,50.4,50.1,30.18,East,90,2.2,-999.0,99,-99.99,,,0.00,Acu-Link.com,2013-11-17 07:24:00,
2013-11-17 02:39:00,50.4,50.1,30.18,NE,45,1.1,-999.0,99,-99.99,,,0.00,Acu-Link.com,2013-11-17 07:39:00,
2013-11-17 02:55:00,50.4,50.1,30.18,SE,135,1.7,-999.0,99,-99.99,,,0.00,Acu-Link.com,2013-11-17 07:55:00,
2013-11-17 03:10:00,50.5,50.2,30.18,SSE,157,1.7,-999.0,99,-99.99,,,0.00,Acu-Link.com,2013-11-17 08:10:00,
2013-11-17 03:25:00,50.7,50.4,30.17,South,180,3.7,-999.0,99,-99.99,,,0.00,Acu-Link.com,2013-11-17 08:25:00,
2013-11-17 03:40:00,50.9,50.6,30.16,SSE,157,2.2,-999.0,99,-99.99,,,0.00,Acu-Link.com,2013-11-17 08:40:00,
2013-11-17 03:56:00,50.9,50.6,30.15,SSE,157,4.7,-999.0,99,-99.99,,,0.00,Acu-Link.com,2013-11-17 08:56:00,
2013-11-17 04:11:00,50.9,50.6,30.15,ESE,112,2.7,-999.0,99,-99.99,,,0.00,Acu-Link.com,2013-11-17 09:11:00,
2013-11-17 04:26:00,50.9,50.6,30.15,East,90,0.0,-999.0,99,-99.99,,,0.00,Acu-Link.com,2013-11-17 09:26:00,
2013-11-17 04:42:00,50.9,50.6,30.15,SSE,157,0.0,-999.0,99,-99.99,,,0.00,Acu-Link.com,2013-11-17 09:42:00,
2013-11-17 04:57:00,51.1,50.8,30.15,SW,225,2.7,-999.0,99,-99.99,,,0.00,Acu-Link.com,2013-11-17 09:57:00,
2013-11-17 05:12:00,51.3,51.0,30.15,SSW,202,0.0,-999.0,99,-99.99,,,0.00,Acu-Link.com,2013-11-17 10:12:00,
2013-11-17 05:28:00,51.4,51.1,30.15,SSW,202,2.7,-999.0,99,-99.99,,,0.00,Acu-Link.com,2013-11-17 10:28:00,
2013-11-17 05:43:00,51.4,51.1,30.16,ESE,112,4.2,-999.0,99,-99.99,,,0.00,Acu-Link.com,2013-11-17 10:43:00,
2013-11-17 05:58:00,51.1,50.8,30.16,ENE,67,3.2,-999.0,99,-99.99,,,0.00,Acu-Link.com,2013-11-17 10:58:00,
2013-11-17 06:13:00,51.1,50.8,30.17,ENE,67,2.2,-999.0,99,-99.99,,,0.00,Acu-Link.com,2013-11-17 11:13:00,
2013-11-17 06:28:00,51.1,50.8,30.16,East,90,1.7,-999.0,99,-99.99,,,0.00,Acu-Link.com,2013-11-17 11:28:00,
2013-11-17 06:43:00,51.1,50.8,30.16,East,90,0.0,-999.0,99,-99.99,,,0.00,Acu-Link.com,2013-11-17 11:43:00,
2013-11-17 06:59:00,51.3,51.0,30.16,SE,135,1.7,-999.0,99,-99.99,,,0.00,Acu-Link.com,2013-11-17 11:59:00,
2013-11-17 07:14:00,51.6,51.3,30.16,South,180,4.2,-999.0,99,-99.99,,,0.00,Acu-Link.com,2013-11-17 12:14:00,
2013-11-17 07:29:00,51.6,51.3,30.16,SSE,157,6.3,-999.0,99,-99.99,,,0.00,Acu-Link.com,2013-11-17 12:29:00,
2013-11-17 07:44:00,51.6,51.3,30.15,SSE,157,2.2,-999.0,99,-99.99,,,0.01,Acu-Link.com,2013-11-17 12:44:00,
2013-11-17 08:00:00,51.8,51.5,30.16,ESE,112,2.7,-999.0,99,-99.99,,,0.01,Acu-Link.com,2013-11-17 13:00:00,
2013-11-17 08:15:00,51.8,51.5,30.15,SSE,157,2.2,-999.0,99,-99.99,,,0.01,Acu-Link.com,2013-11-17 13:15:00,
2013-11-17 08:30:00,51.4,51.1,30.15,SSE,157,3.7,-999.0,99,-99.99,,,0.01,Acu-Link.com,2013-11-17 13:30:00,
2013-11-17 08:46:00,51.6,51.3,30.16,SSE,157,3.7,-999.0,99,-99.99,,,0.01,Acu-Link.com,2013-11-17 13:46:00,
2013-11-17 09:01:00,51.8,51.5,30.15,South,180,4.2,-999.0,99,-99.99,,,0.01,Acu-Link.com,2013-11-17 14:01:00,
2013-11-17 09:16:00,52.5,52.2,30.15,South,180,2.7,-999.0,99,-99.99,,,0.01,Acu-Link.com,2013-11-17 14:16:00,
2013-11-17 09:31:00,52.5,52.2,30.15,SE,135,2.7,-999.0,99,-99.99,,,0.01,Acu-Link.com,2013-11-17 14:31:00,
2013-11-17 09:47:00,52.3,52.0,30.15,SE,135,2.7,-999.0,99,-99.99,,,0.01,Acu-Link.com,2013-11-17 14:47:00,
2013-11-17 10:02:00,52.3,52.0,30.15,ENE,67,4.2,-999.0,99,-99.99,,,0.01,Acu-Link.com,2013-11-17 15:02:00,
2013-11-17 10:17:00,52.9,52.6,30.15,SSW,202,3.7,-999.0,99,-99.99,,,0.01,Acu-Link.com,2013-11-17 15:17:00,
2013-11-17 10:32:00,52.9,52.6,30.15,SSE,157,4.7,-999.0,99,-99.99,,,0.01,Acu-Link.com,2013-11-17 15:32:00,
2013-11-17 10:47:00,53.2,52.9,30.15,East,90,0.0,-999.0,99,-99.99,,,0.01,Acu-Link.com,2013-11-17 15:47:00,
2013-11-17 11:03:00,53.1,52.5,30.14,East,90,0.0,-999.0,98,-99.99,,,0.01,Acu-Link.com,2013-11-17 16:03:00,
2013-11-17 11:18:00,53.8,53.0,30.14,SE,135,4.2,-999.0,97,-99.99,,,0.01,Acu-Link.com,2013-11-17 16:18:00,
2013-11-17 11:33:00,54.9,53.5,30.13,South,180,4.7,-999.0,95,-99.99,,,0.01,Acu-Link.com,2013-11-17 16:33:00,
2013-11-17 11:48:00,55.4,53.4,30.12,ESE,112,7.8,-999.0,93,-99.99,,,0.01,Acu-Link.com,2013-11-17 16:48:00,
2013-11-17 12:03:00,54.9,52.9,30.11,South,180,6.8,-999.0,93,-99.99,,,0.01,Acu-Link.com,2013-11-17 17:03:00,
2013-11-17 12:19:00,55.4,53.4,30.10,South,180,6.8,-999.0,93,-99.99,,,0.01,Acu-Link.com,2013-11-17 17:19:00,
2013-11-17 12:34:00,57.6,54.4,30.08,South,180,2.7,-999.0,89,-99.99,,,0.01,Acu-Link.com,2013-11-17 17:34:00,
2013-11-17 12:49:00,57.6,54.4,30.07,South,180,6.8,-999.0,89,-99.99,,,0.01,Acu-Link.com,2013-11-17 17:49:00,
2013-11-17 13:04:00,56.1,53.5,30.07,South,180,2.7,-999.0,91,-99.99,,,0.01,Acu-Link.com,2013-11-17 18:04:00,
2013-11-17 13:20:00,56.5,53.9,30.08,SSW,202,6.3,-999.0,91,-99.99,,,0.01,Acu-Link.com,2013-11-17 18:20:00,
2013-11-17 13:35:00,57.0,53.8,30.08,SE,135,5.8,-999.0,89,-99.99,,,0.01,Acu-Link.com,2013-11-17 18:35:00,
2013-11-17 13:50:00,57.4,54.2,30.05,SSE,157,5.8,-999.0,89,-99.99,,,0.01,Acu-Link.com,2013-11-17 18:50:00,
2013-11-17 14:05:00,57.2,54.0,30.04,ESE,112,8.9,-999.0,89,-99.99,,,0.01,Acu-Link.com,2013-11-17 19:05:00,
2013-11-17 14:20:00,57.2,54.3,30.03,SSE,157,4.7,-999.0,90,-99.99,,,0.01,Acu-Link.com,2013-11-17 19:20:00,
2013-11-17 14:35:00,55.9,53.3,30.03,South,180,3.7,-999.0,91,-99.99,,,0.01,Acu-Link.com,2013-11-17 19:35:00,
2013-11-17 14:50:00,56.7,54.1,30.04,South,180,6.3,-999.0,91,-99.99,,,0.01,Acu-Link.com,2013-11-17 19:50:00,
2013-11-17 15:06:00,55.8,53.5,30.04,SSW,202,6.8,-999.0,92,-99.99,,,0.01,Acu-Link.com,2013-11-17 20:06:00,
2013-11-17 15:21:00,55.0,53.3,30.04,SSE,157,5.8,-999.0,94,-99.99,,,0.01,Acu-Link.com,2013-11-17 20:21:00,
2013-11-17 15:36:00,54.9,53.2,30.03,SE,135,6.8,-999.0,94,-99.99,,,0.01,Acu-Link.com,2013-11-17 20:36:00,
2013-11-17 15:51:00,55.0,53.3,30.04,SSE,157,5.3,-999.0,94,-99.99,,,0.01,Acu-Link.com,2013-11-17 20:51:00,
2013-11-17 16:06:00,55.2,53.2,30.02,SW,225,8.3,-999.0,93,-99.99,,,0.01,Acu-Link.com,2013-11-17 21:06:00,
2013-11-17 16:21:00,55.2,52.9,30.02,SW,225,14.0,-999.0,92,-99.99,,,0.01,Acu-Link.com,2013-11-17 21:21:00,
2013-11-17 16:36:00,55.0,53.0,30.01,South,180,8.9,-999.0,93,-99.99,,,0.01,Acu-Link.com,2013-11-17 21:36:00,
2013-11-17 16:51:00,54.9,53.2,30.01,WSW,247,5.3,-999.0,94,-99.99,,,0.01,Acu-Link.com,2013-11-17 21:51:00,
2013-11-17 17:07:00,55.2,53.5,30.02,SSW,202,6.8,-999.0,94,-99.99,,,0.01,Acu-Link.com,2013-11-17 22:07:00,
2013-11-17 17:22:00,55.6,53.6,30.01,SSW,202,7.3,-999.0,93,-99.99,,,0.01,Acu-Link.com,2013-11-17 22:22:00,
2013-11-17 17:37:00,55.4,53.7,30.01,SW,225,3.7,-999.0,94,-99.99,,,0.01,Acu-Link.com,2013-11-17 22:37:00,
2013-11-17 17:52:00,55.2,53.8,29.99,ESE,112,5.8,-999.0,95,-99.99,,,0.01,Acu-Link.com,2013-11-17 22:52:00,
2013-11-17 18:07:00,55.6,54.2,29.99,ESE,112,6.8,-999.0,95,-99.99,,,0.01,Acu-Link.com,2013-11-17 23:07:00,
2013-11-17 18:22:00,55.8,54.4,29.98,South,180,7.8,-999.0,95,-99.99,,,0.02,Acu-Link.com,2013-11-17 23:22:00,
2013-11-17 18:37:00,56.1,54.7,29.98,South,180,15.5,-999.0,95,-99.99,,,0.02,Acu-Link.com,2013-11-17 23:37:00,
2013-11-17 18:52:00,56.5,55.1,29.98,SSW,202,8.9,-999.0,95,-99.99,,,0.02,Acu-Link.com,2013-11-17 23:52:00,
2013-11-17 19:08:00,56.5,55.1,29.98,South,180,13.0,-999.0,95,-99.99,,,0.02,Acu-Link.com,2013-11-18 00:08:00,
2013-11-17 19:23:00,56.3,55.2,29.97,SSW,202,8.3,-999.0,96,-99.99,,,0.02,Acu-Link.com,2013-11-18 00:23:00,
2013-11-17 19:38:00,56.3,55.2,29.97,SW,225,7.3,-999.0,96,-99.99,,,0.02,Acu-Link.com,2013-11-18 00:38:00,
2013-11-17 19:53:00,56.3,55.5,29.96,South,180,16.1,-999.0,97,-99.99,,,0.02,Acu-Link.com,2013-11-18 00:53:00,
2013-11-17 20:08:00,56.1,55.5,29.96,SSW,202,11.4,-999.0,98,-99.99,,,0.02,Acu-Link.com,2013-11-18 01:08:00,
2013-11-17 20:24:00,56.3,55.7,29.95,South,180,8.9,-999.0,98,-99.99,,,0.02,Acu-Link.com,2013-11-18 01:24:00,
2013-11-17 20:39:00,56.7,55.9,29.95,SW,225,11.4,-999.0,97,-99.99,,,0.02,Acu-Link.com,2013-11-18 01:39:00,
2013-11-17 20:54:00,56.7,55.9,29.94,SSW,202,14.0,-999.0,97,-99.99,,,0.02,Acu-Link.com,2013-11-18 01:54:00,
2013-11-17 21:09:00,56.8,56.0,29.95,SW,225,8.3,-999.0,97,-99.99,,,0.03,Acu-Link.com,2013-11-18 02:09:00,
2013-11-17 21:24:00,57.0,55.9,29.94,SSW,202,9.9,-999.0,96,-99.99,,,0.04,Acu-Link.com,2013-11-18 02:24:00,
2013-11-17 21:39:00,57.4,56.0,29.93,SW,225,11.9,-999.0,95,-99.99,,,0.04,Acu-Link.com,2013-11-18 02:39:00,
2013-11-17 21:54:00,57.7,56.3,29.94,SW,225,10.4,-999.0,95,-99.99,,,0.04,Acu-Link.com,2013-11-18 02:54:00,
2013-11-17 22:09:00,58.3,56.9,29.94,West,270,8.9,-999.0,95,-99.99,,,0.04,Acu-Link.com,2013-11-18 03:09:00,
2013-11-17 22:24:00,58.5,57.1,29.93,SSW,202,18.1,-999.0,95,-99.99,,,0.04,Acu-Link.com,2013-11-18 03:24:00,
2013-11-17 22:39:00,58.6,56.9,29.93,SW,225,13.0,-999.0,94,-99.99,,,0.04,Acu-Link.com,2013-11-18 03:39:00,
2013-11-17 22:55:00,59.0,57.3,29.92,SSW,202,15.5,-999.0,94,-99.99,,,0.04,Acu-Link.com,2013-11-18 03:55:00,
2013-11-17 23:10:00,59.0,57.3,29.91,SSW,202,12.5,-999.0,94,-99.99,,,0.04,Acu-Link.com,2013-11-18 04:10:00,
2013-11-17 23:25:00,59.2,57.5,29.90,SSW,202,9.4,-999.0,94,-99.99,,,0.04,Acu-Link.com,2013-11-18 04:25:00,
2013-11-17 23:40:00,59.2,57.5,29.89,SW,225,10.9,-999.0,94,-99.99,,,0.04,Acu-Link.com,2013-11-18 04:40:00,
2013-11-17 23:56:00,59.5,57.5,29.89,SW,225,15.0,-999.0,93,-99.99,,,0.04,Acu-Link.com,2013-11-18 04:56:00,